Location: Bosdarros
(43.2167°N, 0.3667°W)
Time: 15:48:20
(UTC+00:00)

Cosmos 1862 - Pass Details

Date: 22 April 2021
Orbit: 537 x 556 km, 82.5° (Epoch: 13 May)

Event Time Altitude Azimuth Distance (km) Brightness Sun altitude
Rises 21:36:31 0° 354° (N) 2,701 7.7 -25.4°
Reaches altitude 10° 21:38:41 10° 357° (N) 1,805 6.6 -25.6°
Enters shadow 21:41:20 39° 12° (NNE) 815 4.4 -25.9°
